GLOBALSTAR M059 [-]

Last updated on Fri Dec 29 2023 00:02:56 GMT+0000 (Coordinated Universal Time)

1 25944U 99058B 23362.00772419 -.00000014 00000+0 89254-3 0 9997 2 25944 51.9991 220.3871 0001333 63.1470 84.8249 11.99959658 98301

Satellite not in orbit

GLOBALSTAR M059 [-]